Location: Demmingen
(48.6757°N, 10.4375°E)
Time: 20:23:54
(UTC+00:00)

SL-16 R/B - Pass Details

Date: 11 August 2024
Orbit: 842 x 845 km, 71.0° (Epoch: 10 September)

Event Time Altitude Azimuth Distance (km) Brightness Sun altitude
Rises 02:24:32 0° 284° (WNW) 3,405 5.0 -14.6°
Reaches altitude 10° 02:29:20 10° 320° (NW) 2,474 4.7 -14.1°
Maximum altitude 02:30:46 11° 335° (NNW) 2,412 4.8 -13.9°
Drops below altitude 10° 02:32:12 10° 350° (N) 2,476 5.1 -13.7°
Sets 02:37:01 0° 26° (NNE) 3,416 6.7 -13.1°
